Lapse_Rate
3.0 1.7 1.1 -0.0 -2.1 -1.0 -0.7 -2.0 -3.4 -3.6 -3.4 -2.7 -3.4 -3.5 -4.6 -5.0 -4.8 -4.5 -3.9 -3.5 -2.5 -1.6 -2.2 -1.9 -1.8 -1.5 -1.4 -1.5 -0.7 -0.1 0.3 0.3 0.0 4.1 6.2 5.7 5.6 4.9 4.8 4.6 4.5 4.9 3.6
2.5 1.4 1.4 1.1 -0.4 -2.0 -1.3 -2.4 -2.8 -3.6 -3.2 -3.5 -2.8 -2.9 -3.5 -4.5 -4.5 -4.1 -4.1 -3.6 -3.2 -2.5 -1.5 -2.0 -2.3 -2.3 -1.8 -1.7 -1.8 -1.4 0.5 0.0 -0.2 2.8 5.0 6.6 6.3 4.5 4.5 4.3 4.5 4.1 4.2
0.8 0.8 0.8 0.3 -1.2 -1.5 -1.7 -3.0 -2.3 -3.1 -3.2 -2.3 -2.5 -2.7 -2.6 -2.6 -3.0 -3.5 -3.7 -3.6 -3.5 -3.5 -2.7 -2.2 -1.7 -1.9 -2.4 -2.2 -2.2 -2.3 -1.2 -0.0 -0.0 0.4 2.7 5.9 6.2 5.5 5.8 4.0 3.6 3.5 3.2
2.6 1.5 0.9 0.3 -0.3 -1.4 -1.8 -2.1 -1.6 -2.2 -2.6 -2.0 -1.4 -0.7 -0.5 -2.0 -2.9 -3.0 -3.0 -3.4 -3.2 -3.4 -3.6 -3.1 -2.6 -2.2 -2.1 -2.6 -1.7 -2.0 -2.3 -1.1 -1.5 -0.3 1.1 -0.4 0.7 5.5 6.2 5.5 4.4 3.9 3.4
2.4 1.9 2.0 0.9 -0.3 -1.1 -1.8 -2.0 -1.2 -1.6 -2.3 -2.3 -1.2 -0.9 -1.8 -1.5 -1.8 -2.3 -2.3 -2.5 -2.9 -3.1 -3.2 -3.0 -3.1 -2.6 -2.4 -2.7 -2.7 -2.4 -2.2 -2.1 -1.8 -2.0 -1.0 0.4 0.0 1.1 3.9 5.5 5.0 4.1 2.9
2.9 2.3 2.2 0.9 -0.3 -0.7 -1.2 -1.1 -1.1 -1.2 -0.9 -0.6 -0.2 -0.2 -0.6 -0.7 -1.2 -1.7 -1.9 -2.2 -2.5 -2.8 -3.0 -3.0 -2.9 -3.0 -2.9 -2.8 -2.6 -2.3 -2.0 -1.9 -1.8 -1.8 -2.0 -1.8 -1.6 -0.6 0.5 2.5 3.3 3.8 2.8
3.1 2.7 1.0 1.3 1.2 0.4 0.1 0.1 -0.1 -0.4 0.0 0.2 -0.0 -0.1 -0.1 -0.2 -0.7 -1.3 -1.4 -1.9 -2.4 -2.6 -3.1 -3.0 -3.2 -3.0 -2.9 -2.8 -2.4 -2.0 -2.3 -2.4 -2.5 -2.6 -2.4 -2.0 -2.2 -1.9 -1.2 -0.5 -0.1 1.8 2.7
4.0 1.9 1.3 0.7 0.8 0.8 0.7 0.3 -0.2 -0.2 0.1 -0.5 -1.0 -1.1 -0.8 -1.2 -1.4 -1.4 -1.6 -1.9 -2.5 -3.1 -3.5 -3.3 -3.3 -3.1 -2.8 -2.4 -2.1 -2.1 -1.7 -2.4 -2.6 -2.7 -2.8 -2.4 -2.7 -2.3 -1.4 -0.4 -0.2 1.5 1.9
3.2 2.0 2.1 2.0 2.1 1.1 0.4 0.3 0.3 0.0 -0.6 -1.2 -1.5 -1.5 -1.4 -1.4 -1.9 -2.0 -2.1 -2.5 -2.4 -2.7 -3.5 -3.5 -3.2 -3.7 -3.0 -2.4 -2.1 -2.2 -2.2 -1.8 -1.8 -1.9 -1.9 -2.0 -2.1 -1.7 -1.4 -1.1 -0.4 1.0 1.8
3.6 2.6 1.9 2.5 2.4 2.0 1.9 1.9 1.1 -0.1 -0.8 -1.0 -0.9 -1.3 -1.5 -1.5 -1.9 -2.0 -2.5 -3.2 -3.6 -3.5 -3.5 -3.5 -3.6 -3.5 -3.3 -2.6 -1.8 -1.6 -1.8 -1.4 -0.9 -1.3 -1.5 -1.3 -1.4 -1.3 -1.0 0.1 0.3 0.6 1.5
4.6 2.9 2.1 2.0 2.4 2.5 1.8 1.0 0.9 0.1 -0.7 -0.7 -1.1 -1.4 -1.7 -2.0 -2.4 -2.9 -3.6 -3.8 -4.1 -4.1 -4.1 -4.2 -4.1 -3.7 -3.3 -2.6 -1.7 -1.1 -1.3 -1.0 -1.1 -0.7 -0.9 -0.6 -0.5 -0.8 -0.6 0.3 0.7 1.2 1.6
4.3 2.8 1.9 1.3 1.5 1.4 1.5 1.3 1.2 0.3 -0.5 -0.8 -1.3 -1.7 -2.1 -2.6 -2.9 -3.5 -4.1 -4.4 -4.6 -4.3 -4.5 -4.3 -4.2 -4.0 -3.4 -2.6 -1.8 -1.4 -1.2 -0.8 -0.5 -0.5 -0.3 -0.4 0.9 0.2 0.0 0.2 0.6 1.2 1.9
3.9 2.5 2.0 1.7 0.9 0.2 0.6 0.8 0.5 -0.7 -1.0 -1.3 -2.0 -2.5 -3.1 -3.4 -3.8 -4.6 -4.6 -4.3 -4.3 -4.4 -3.9 -3.8 -3.8 -3.7 -3.0 -2.2 -1.2 -1.2 -0.9 -0.7 -0.4 0.1 0.2 0.2 0.4 0.7 0.6 1.0 1.3 2.0 3.4
4.0 2.4 1.5 0.8 0.4 -0.4 -0.6 -0.0 -0.5 -0.8 -1.6 -1.9 -2.5 -3.6 -4.6 -5.1 -5.2 -4.6 -4.5 -4.2 -3.8 -4.0 -3.8 -3.6 -3.5 -3.2 -2.5 -1.0 -0.1 0.5 0.1 0.1 0.4 0.9 1.1 1.5 1.5 1.5 1.9 2.9 2.6 3.6 3.0
4.3 2.6 1.1 0.4 -0.6 -0.9 -1.4 -0.9 -1.2 -1.9 -2.8 -3.2 -3.6 -4.5 -5.1 -4.7 -4.6 -4.5 -4.1 -3.1 -2.9 -2.9 -2.6 -2.7 -2.5 -2.2 -1.2 0.7 2.0 1.6 1.0 0.4 0.9 1.4 2.1 2.2 2.8 3.8 4.9 5.1 4.3 3.8 3.8
5.5 3.0 1.1 0.3 -0.3 -0.8 -1.2 -0.5 -1.7 -1.8 -2.2 -2.8 -3.5 -3.9 -4.0 -3.4 -3.3 -2.8 -2.4 -2.1 -2.1 -1.7 -1.4 -1.8 -1.6 -1.5 -0.5 3.5 4.8 5.0 1.3 1.6 1.7 1.5 1.6 1.7 2.6 2.9 4.7 5.4 5.8 6.9 7.1
4.0 3.0 1.6 1.0 0.4 0.2 0.4 -0.3 -0.6 -1.2 -1.5 -1.5 -1.5 -1.2 -0.6 -0.4 -0.4 -0.4 -0.2 -0.3 -0.7 -0.4 -0.3 -0.1 -0.3 -0.7 -0.0 4.4 5.1 6.4 3.5 2.6 1.2 0.1 0.7 1.6 3.5 3.9 3.1 3.8 5.8 6.1 7.1
3.4 2.0 2.0 1.7 1.2 0.9 0.7 -0.4 -0.1 0.3 0.4 0.3 0.1 0.4 0.6 0.7 0.7 0.8 0.6 0.4 0.5 0.5 0.6 0.4 0.4 0.2 1.4 4.3 5.2 7.3 4.9 4.2 3.8 3.6 3.6 2.3 2.6 3.6 5.6 4.9 3.3 4.2 4.9
4.2 2.6 2.1 2.0 2.2 1.7 1.2 0.8 0.8 1.1 1.2 1.2 1.3 1.5 1.6 1.4 1.6 1.3 1.1 1.2 1.1 1.1 0.6 1.6 0.9 -0.3 1.3 4.8 6.2 8.7 7.2 5.8 4.7 6.3 6.6 5.9 5.6 7.4 9.3 8.0 6.7 6.3 6.3
3.8 3.9 4.0 3.0 2.2 2.1 1.8 1.4 1.4 2.0 2.4 2.9 3.2 3.5 3.1 2.2 1.8 2.1 2.1 1.8 1.6 2.1 2.8 3.3 1.8 4.1 2.4 4.8 7.0 9.4 8.6 7.2 8.0 7.9 8.3 8.6 9.5 9.6 9.5 8.4 7.0 6.6 7.1
3.9 3.9 3.9 2.3 1.8 2.0 2.4 2.2 1.9 2.6 3.5 4.9 4.9 4.1 3.4 2.7 2.4 2.4 2.3 2.0 1.8 2.1 2.0 2.9 3.0 3.5 4.4 4.6 8.5 9.5 9.4 8.7 8.8 8.8 8.3 8.5 8.9 9.5 9.4 9.1 7.5 8.0 8.8
4.8 3.9 3.5 2.9 3.5 3.3 3.1 3.0 3.4 5.1 5.7 5.6 4.5 3.3 3.4 4.0 3.6 3.2 2.9 2.8 2.6 2.6 2.7 3.3 4.0 4.4 4.7 6.2 7.7 9.5 9.5 9.4 9.1 8.4 8.3 7.4 7.9 9.0 9.3 9.0 9.6 9.2 7.5
4.1 4.2 3.6 3.5 3.9 4.2 4.0 4.5 5.4 5.5 5.0 3.8 3.2 3.3 3.7 4.0 4.0 4.0 3.6 3.2 3.0 2.6 3.5 3.8 3.8 4.5 5.8 5.5 7.4 8.3 9.3 9.5 9.3 8.9 8.7 8.0 7.9 8.5 7.8 8.5 9.5 9.5 7.2
4.3 4.0 3.8 4.1 4.4 5.5 5.6 4.9 5.0 4.2 3.6 3.1 3.0 3.2 3.1 3.1 3.3 3.9 4.3 3.6 1.3 1.4 3.1 3.8 4.5 4.2 5.0 5.3 5.7 6.4 6.1 7.2 7.8 6.5 5.9 7.4 7.4 7.1 7.5 6.9 6.9 7.3 7.5
4.5 4.3 4.0 4.0 4.3 5.3 4.8 4.3 3.8 3.5 3.1 2.9 3.0 3.3 3.2 2.9 2.9 3.5 3.1 3.6 4.0 4.3 4.3 3.2 5.0 3.5 4.4 6.4 8.7 9.3 8.6 7.3 8.8 4.8 2.3 3.8 4.5 4.7 5.5 6.1 6.8 7.2 7.5
4.8 4.5 4.1 4.6 4.5 4.1 3.4 3.3 3.5 3.6 2.9 2.9 3.1 3.3 2.7 2.2 2.1 1.8 2.1 6.7 9.0 9.3 9.3 9.4 8.5 8.7 9.4 9.4 9.5 9.5 9.4 9.2 9.5 0.8 -3.1 -0.7 2.7 3.6 4.3 4.7 5.1 5.7 6.5
Wind_Speed
8 8 7 5 5 2 1 3 5 5 4 2 3 5 3 5 9 12 14 15 13 14 15 12 12 12 9 6 7 3 5 6 4 2 8 7 8 9 12 14 15 18 20
11 11 9 8 6 3 3 3 3 6 4 3 4 4 4 6 8 10 15 16 15 14 15 13 12 12 7 9 7 5 2 3 6 2 3 4 3 7 8 12 13 14 16
17 14 13 10 7 5 2 5 1 5 5 8 9 9 8 4 3 5 9 14 16 16 16 14 13 12 11 5 6 5 5 2 5 7 2 3 3 3 4 8 8 10 13
13 14 14 12 10 7 5 6 3 4 5 5 5 3 3 4 3 4 9 13 16 17 16 15 14 14 12 9 8 11 5 3 3 2 5 5 3 2 4 3 5 9 9
16 15 14 14 11 9 6 6 4 5 5 6 5 5 8 6 5 5 8 10 14 17 16 16 15 14 13 13 13 11 8 6 4 3 2 3 4 5 3 3 2 7 7
16 13 12 13 11 9 8 7 7 7 6 6 7 9 10 8 6 6 6 5 9 12 16 16 15 15 14 14 13 14 14 7 7 7 7 5 3 2 3 3 3 3 5
18 17 16 13 12 11 9 8 8 8 7 7 8 8 9 9 9 7 5 6 5 5 11 13 14 13 14 15 16 15 14 12 6 7 6 6 6 3 2 2 2 2 1
17 17 16 15 14 13 11 10 9 9 7 8 9 8 9 6 6 7 6 5 5 7 11 12 14 14 17 17 16 13 13 13 11 9 7 6 5 5 4 2 2 2 2
16 17 15 14 13 12 11 11 11 9 9 9 9 9 9 9 8 10 11 8 9 11 12 12 13 16 17 17 15 12 10 13 11 10 10 5 7 10 8 4 3 2 1
16 15 14 14 12 12 11 10 9 9 10 10 9 8 9 12 12 12 9 11 11 12 13 12 14 15 16 16 14 11 12 11 10 11 8 8 8 9 10 6 4 4 2
16 15 13 13 14 12 11 11 10 10 10 9 9 9 8 11 12 10 11 11 12 11 12 12 13 13 13 14 12 12 11 8 7 10 8 7 10 4 7 7 4 4 3
16 15 15 14 13 12 11 10 9 9 9 9 9 9 9 11 8 9 11 11 11 13 13 13 13 12 12 13 11 8 9 7 7 6 6 6 9 5 6 4 4 3 3
17 15 14 13 11 10 9 9 9 9 9 9 9 9 8 8 8 7 11 12 12 12 13 12 11 10 10 11 11 10 8 7 7 6 5 4 4 5 3 3 3 2 3
17 15 12 11 10 9 9 8 8 8 8 8 8 8 7 6 6 9 11 12 13 12 12 12 11 10 9 8 6 6 6 6 7 7 7 6 5 4 5 5 3 4 4
17 16 14 12 11 10 9 8 6 7 7 8 7 6 5 7 9 8 10 10 11 10 10 11 11 11 8 5 2 1 1 2 3 6 7 8 12 13 12 7 4 3 3
17 16 16 14 12 12 10 9 7 7 7 7 7 5 5 5 4 5 6 8 8 8 9 8 7 7 6 9 9 6 2 2 2 3 5 10 11 12 13 15 17 16 7
20 17 18 16 13 13 12 11 9 7 6 7 6 6 6 6 5 5 4 5 4 5 5 6 7 5 8 10 10 10 8 4 2 3 5 6 10 14 13 16 16 15 17
20 18 14 12 11 11 10 10 9 8 8 7 6 6 6 6 5 5 5 4 3 3 3 3 6 5 8 10 11 10 6 4 6 8 10 8 12 17 15 11 7 10 13
16 15 15 15 13 12 11 10 9 8 8 7 7 6 6 6 5 6 5 3 3 3 2 6 6 3 7 11 10 9 3 2 5 9 12 11 11 16 20 9 5 5 7
16 16 15 15 14 11 11 11 9 8 7 7 7 7 6 6 6 5 5 3 4 5 6 5 8 9 6 11 10 10 3 3 3 6 7 12 16 19 19 10 6 7 8
17 16 15 14 13 11 10 11 9 8 8 8 7 7 6 7 7 5 5 4 5 5 4 4 5 7 9 10 12 11 6 3 4 4 4 10 18 20 22 23 10 11 18
16 16 15 13 11 10 10 10 10 9 9 8 8 7 5 6 7 7 7 7 4 4 4 4 3 5 10 11 11 12 13 12 4 4 6 13 18 17 21 20 23 24 18
15 14 14 13 10 8 9 11 9 9 9 9 8 7 7 7 8 7 6 4 3 3 2 2 3 3 6 10 12 12 12 13 9 9 12 15 17 17 16 19 21 20 9
14 14 15 13 11 11 11 9 10 9 9 9 8 7 7 6 5 4 4 2 1 1 1 2 2 3 3 4 10 10 11 11 12 7 12 14 14 14 15 12 12 11 10
14 13 13 12 13 11 10 9 9 9 9 8 7 6 5 5 4 3 1 1 2 4 2 3 3 2 3 5 11 8 3 4 6 7 4 5 6 6 5 5 6 8 8
13 12 13 13 12 11 10 8 8 8 9 8 5 5 4 3 3 3 3 7 6 7 7 7 4 2 9 13 13 12 13 14 17 6 2 2 4 5 6 6 7 6 9
Wind_Direction
177 181 185 173 115 92 69 34 102 89 100 101 95 86 67 66 46 47 41 37 42 55 56 49 36 33 42 25 22 26 40 35 5 98 86 70 60 53 49 57 62 72 73
180 185 188 175 167 127 145 77 64 88 87 84 98 114 109 76 66 57 51 43 40 44 65 56 45 32 37 34 25 25 46 43 18 91 124 132 84 50 40 44 64 60 72
183 183 185 174 149 144 157 100 62 95 90 108 109 102 108 94 63 40 52 44 44 41 51 58 62 49 43 40 34 18 42 90 38 37 16 145 148 132 37 43 54 56 67
184 179 176 166 157 145 129 126 126 96 95 105 116 136 108 118 93 81 70 56 49 47 41 50 60 62 55 45 38 38 35 56 48 11 40 53 18 134 150 61 51 58 61
177 174 174 161 146 143 135 117 120 101 98 98 109 113 104 108 113 90 77 63 55 50 45 46 48 57 61 56 53 45 43 42 60 51 1 36 43 28 68 126 74 68 50
168 160 153 138 137 136 130 127 113 95 97 102 111 117 122 127 117 102 86 67 57 54 45 47 50 51 55 55 55 56 50 47 51 54 52 50 40 28 35 91 66 87 57
160 155 149 142 138 139 134 127 116 103 98 107 101 102 105 108 102 97 92 87 68 55 47 49 52 51 54 56 61 62 56 50 55 49 56 48 43 23 36 66 68 93 185
160 155 150 144 145 146 146 130 121 114 114 103 93 86 90 90 88 89 90 80 75 68 64 61 61 60 59 57 57 57 66 62 59 55 49 57 38 33 35 55 46 51 13
151 146 141 141 142 145 139 139 133 122 110 99 93 87 87 90 92 86 84 80 81 81 69 65 65 57 59 59 60 57 55 61 57 53 51 51 36 38 32 40 36 48 31
144 141 138 137 134 132 131 128 123 116 107 98 95 90 89 87 86 88 87 84 79 77 72 59 58 56 56 59 62 58 50 57 54 54 52 43 32 35 33 31 31 35 53
144 140 133 131 131 130 130 125 122 117 106 102 101 97 91 87 88 90 88 83 82 72 66 64 63 56 52 49 58 68 52 57 54 47 48 40 39 32 29 28 25 31 20
138 135 133 132 132 128 125 121 118 112 110 108 104 99 98 95 92 90 89 87 81 76 74 69 65 60 55 55 58 58 50 52 49 44 47 38 25 29 26 22 19 15 355
136 135 135 136 130 123 121 119 117 113 110 108 108 105 103 102 97 90 88 86 83 75 73 68 64 57 53 55 63 62 54 49 42 34 34 23 19 11 355 346 354 347 355
143 138 131 128 126 120 117 116 113 114 111 107 109 108 102 101 99 98 91 88 87 82 76 70 68 60 62 59 49 49 48 44 42 33 18 8 355 321 309 320 331 326 311
150 147 140 135 128 122 116 113 109 110 113 110 107 107 105 107 107 97 95 93 87 83 80 71 62 54 49 359 30 72 19 40 26 16 5 354 335 330 325 325 308 298 293
150 147 137 134 133 134 131 126 119 119 117 115 117 119 114 113 108 109 106 93 86 78 71 62 52 40 24 21 17 28 107 46 17 348 341 340 339 325 327 322 315 309 306
149 151 147 144 144 145 143 138 134 128 115 119 125 127 127 118 113 112 101 89 86 75 58 52 44 24 8 12 9 6 55 39 358 314 320 322 320 325 309 306 306 301 296
148 146 142 136 136 131 128 127 130 130 127 123 123 125 124 119 118 108 93 87 76 66 58 46 48 32 4 7 2 359 29 356 325 313 302 295 303 306 304 266 257 260 266
133 135 132 132 129 128 130 126 124 128 128 130 130 130 125 118 112 98 89 75 75 64 55 61 38 18 2 2 357 11 347 317 292 294 296 293 279 300 306 305 275 271 266
130 127 126 122 123 127 128 124 125 126 127 131 128 131 125 116 106 102 94 86 82 68 62 60 38 26 8 356 353 3 19 343 309 314 321 320 317 317 315 312 292 283 276
122 120 124 123 125 125 126 122 127 128 139 137 132 127 120 110 109 105 97 86 76 76 59 54 26 14 3 355 2 353 22 323 351 347 322 303 311 311 313 313 322 308 306
123 122 119 116 121 125 129 128 128 129 124 121 113 105 100 110 105 101 94 85 87 81 62 42 2 347 346 353 352 1 357 347 2 325 300 295 308 345 355 345 330 336 359
122 120 120 119 120 126 134 129 122 120 115 110 106 101 98 95 98 102 100 91 80 75 40 20 348 328 329 324 331 334 333 341 336 318 359 10 358 347 338 328 328 329 328
118 119 119 120 125 126 122 114 119 116 113 109 104 108 106 95 85 84 89 80 59 24 345 320 307 298 300 298 298 294 282 289 298 61 8 352 344 338 336 335 331 330 325
116 120 122 119 120 117 110 116 115 117 112 107 104 98 84 91 89 76 98 137 258 205 223 230 214 212 274 276 307 335 291 308 12 31 11 358 350 334 323 315 310 313 314
121 120 121 120 115 110 106 103 106 113 115 114 109 109 96 81 78 65 21 27 17 11 4 350 342 284 320 323 334 341 352 5 351 22 353 312 311 305 306 305 302 297 301